カタログに戻る

COSMOS 2468

運用中軍事PO
NORAD 37154·PAYLOAD·🇷🇺 Russia

打ち上げ Sep 8, 2010 から Plesetsk Cosmodrome

Loading…

次のパス (今後24時間)

TLE

最新Source: Space-Track

元期: Sep 14, 2026, 14:24 UTC

1 37154U 10043C   26257.60000016  .00000036  00000-0  18576-3 0  9992
2 37154  82.4663   6.2415 0015652 113.3939 257.7323 12.43749591726994

AllMySatでCOSMOS 2468をリアルタイム追跡

Download on the App Store